Location: Izdebno
(52.6670°N, 16.2170°E)
Time: 03:09:33
(UTC+02:00)

SR - Pass Details

Date: 23 February 2024
Orbit: 577 x 862 km, 66.7° (Epoch: 22 April)

Event Time Altitude Azimuth Distance (km) Brightness Sun altitude
Rises 17:44:53 0° 254° (WSW) 3,438 ? -4.3°
Reaches altitude 10° 17:47:39 10° 263° (W) 2,488 ? -4.7°
Maximum altitude 17:52:51 34° 327° (NNW) 1,349 ? -5.5°
Drops below altitude 10° 17:57:51 10° 32° (NNE) 2,374 ? -6.2°
Sets 18:00:23 0° 42° (NE) 3,241 ? -6.6°
Enters shadow 18:00:28 - 42° (NE) 3,274 ? -6.6°
